Location: Dittelbrunn
(50.0738°N, 10.2196°E)
Time: 22:47:58
(UTC+00:00)

Cosmos 1898 Rocket - Pass Details

Date: 18 September 2020
Orbit: 753 x 784 km, 74.0° (Epoch: 30 October)

Event Time Altitude Azimuth Distance (km) Brightness Sun altitude
Rises 18:24:48 0° 205° (SSW) 3,194 6.9 -10.3°
Reaches altitude 10° 18:27:09 10° 207° (SSW) 2,273 6.1 -10.6°
Maximum altitude 18:32:18 80° 294° (WNW) 773 3.6 -11.4°
Drops below altitude 10° 18:37:31 10° 22° (NNE) 2,295 5.9 -12.2°
Sets 18:39:54 0° 24° (NNE) 3,227 6.7 -12.6°
